BWA259 TAPA-TTPP

Flight info

Callsign BWA259
Flight time 1h 36m
Altitude 17000
Route ANU A312 FOF/N0279F160 A324 GND DCT NAPKO
Aircraft AT76/M-SDFGIRY/S

Departure

Time 2026-05-06 20:41
Airport V. C. Bird International Airport (TAPA)

Arrival

Time 2026-05-06 22:17
Airport Piarco International Airport (TTPP)
Time Latitude Longitude Altitude Speed Heading
2026-05-06 20:18 17.14068 -61.79098 60 ft 0 kts 330°
2026-05-06 20:30 17.14067 -61.79098 60 ft 1 kts 330°
2026-05-06 20:30 17.14054 -61.79089 52 ft 3 kts 330°
2026-05-06 20:31 17.14036 -61.79079 54 ft 3 kts 330°
2026-05-06 20:31 17.14021 -61.79069 58 ft 2 kts 328°
2026-05-06 20:31 17.14018 -61.79067 58 ft 0 kts 328°
2026-05-06 20:35 17.14015 -61.79081 55 ft 3 kts 223°
2026-05-06 20:35 17.13977 -61.79090 56 ft 8 kts 197°
2026-05-06 20:35 17.13916 -61.79121 59 ft 11 kts 198°
2026-05-06 20:35 17.13851 -61.79179 60 ft 15 kts 237°
2026-05-06 20:36 17.13791 -61.79278 56 ft 18 kts 237°
2026-05-06 20:36 17.13738 -61.79344 61 ft 4 kts 186°
2026-05-06 20:36 17.13732 -61.79342 62 ft 2 kts 167°
2026-05-06 20:36 17.13706 -61.79328 64 ft 0 kts 152°
2026-05-06 20:37 17.13699 -61.79324 64 ft 2 kts 152°
2026-05-06 20:37 17.13678 -61.79312 64 ft 5 kts 152°
2026-05-06 20:37 17.13649 -61.79308 65 ft 5 kts 195°
2026-05-06 20:37 17.13618 -61.79359 62 ft 13 kts 237°
2026-05-06 20:38 17.13559 -61.79454 61 ft 18 kts 237°
2026-05-06 20:38 17.13485 -61.79584 60 ft 23 kts 239°
2026-05-06 20:38 17.13396 -61.79738 61 ft 26 kts 237°
2026-05-06 20:38 17.13294 -61.79913 60 ft 30 kts 239°
2026-05-06 20:39 17.13183 -61.80100 58 ft 28 kts 234°
2026-05-06 20:39 17.13109 -61.80166 60 ft 10 kts 260°
2026-05-06 20:39 17.13130 -61.80192 56 ft 5 kts 39°
2026-05-06 20:39 17.13138 -61.80178 58 ft 1 kts 58°
2026-05-06 20:40 17.13139 -61.80176 58 ft 1 kts 58°
2026-05-06 20:40 17.13168 -61.80126 58 ft 32 kts 57°
2026-05-06 20:40 17.13404 -61.79725 61 ft 96 kts 58°
2026-05-06 20:40 17.13819 -61.79033 400 ft 117 kts 57°
2026-05-06 20:41 17.14321 -61.78262 756 ft 137 kts 55°
2026-05-06 20:41 17.15054 -61.77547 1268 ft 150 kts 44°
2026-05-06 20:41 17.15867 -61.76817 1687 ft 163 kts 45°
2026-05-06 20:41 17.16347 -61.75766 2155 ft 165 kts 93°
2026-05-06 20:42 17.15803 -61.74751 2749 ft 173 kts 143°
2026-05-06 20:42 17.14629 -61.74495 3392 ft 180 kts 188°
2026-05-06 20:42 17.13397 -61.74769 3902 ft 182 kts 189°
2026-05-06 20:42 17.12141 -61.74992 4508 ft 184 kts 187°
2026-05-06 20:43 17.10872 -61.75198 5084 ft 185 kts 187°
2026-05-06 20:43 17.09589 -61.75327 5647 ft 186 kts 182°
2026-05-06 20:43 17.08287 -61.75332 6198 ft 188 kts 177°
2026-05-06 20:43 17.06977 -61.75212 6717 ft 190 kts 172°
2026-05-06 20:44 17.05685 -61.74990 7210 ft 192 kts 168°
2026-05-06 20:44 17.04374 -61.74703 7709 ft 193 kts 167°
2026-05-06 20:44 17.03054 -61.74400 8205 ft 195 kts 167°
2026-05-06 20:44 17.01723 -61.74089 8701 ft 197 kts 167°
2026-05-06 20:45 17.00381 -61.73774 9189 ft 199 kts 167°
2026-05-06 20:45 16.99019 -61.73468 9626 ft 204 kts 168°
2026-05-06 20:45 16.97551 -61.73148 9645 ft 226 kts 168°
2026-05-06 20:45 16.95965 -61.72805 9791 ft 236 kts 168°
2026-05-06 20:46 16.94370 -61.72459 10080 ft 238 kts 168°
2026-05-06 20:46 16.92744 -61.72107 10351 ft 240 kts 168°
2026-05-06 20:46 16.91106 -61.71753 10628 ft 241 kts 168°
2026-05-06 20:46 16.89457 -61.71395 10893 ft 243 kts 168°
2026-05-06 20:47 16.87795 -61.71034 11153 ft 245 kts 168°
2026-05-06 20:47 16.86122 -61.70671 11416 ft 246 kts 168°
2026-05-06 20:47 16.84439 -61.70307 11678 ft 248 kts 168°
2026-05-06 20:47 16.82742 -61.69940 11929 ft 250 kts 168°
2026-05-06 20:48 16.81035 -61.69570 12172 ft 252 kts 168°
2026-05-06 20:48 16.79339 -61.69204 12425 ft 253 kts 167°
2026-05-06 20:48 16.77607 -61.68830 12660 ft 255 kts 168°
2026-05-06 20:48 16.75868 -61.68453 12908 ft 256 kts 168°
2026-05-06 20:49 16.74112 -61.68076 13164 ft 259 kts 167°
2026-05-06 20:49 16.72346 -61.67691 13442 ft 260 kts 167°
2026-05-06 20:49 16.70575 -61.67280 13708 ft 262 kts 166°
2026-05-06 20:49 16.68806 -61.66799 13942 ft 264 kts 163°
2026-05-06 20:50 16.67038 -61.66267 14177 ft 265 kts 163°
2026-05-06 20:50 16.65266 -61.65728 14413 ft 266 kts 163°
2026-05-06 20:50 16.63509 -61.65195 14631 ft 267 kts 163°
2026-05-06 20:50 16.61718 -61.64654 14853 ft 268 kts 163°
2026-05-06 20:51 16.59923 -61.64111 15067 ft 269 kts 163°
2026-05-06 20:51 16.58123 -61.63566 15285 ft 270 kts 163°
2026-05-06 20:51 16.56315 -61.63019 15492 ft 271 kts 163°
2026-05-06 20:51 16.54500 -61.62470 15696 ft 272 kts 163°
2026-05-06 20:52 16.52680 -61.61921 15888 ft 273 kts 163°
2026-05-06 20:52 16.50850 -61.61369 16081 ft 274 kts 163°
2026-05-06 20:52 16.49017 -61.60817 16264 ft 274 kts 163°
2026-05-06 20:52 16.47202 -61.60270 16297 ft 275 kts 163°
2026-05-06 20:53 16.45362 -61.59716 16349 ft 276 kts 163°
2026-05-06 20:53 16.43519 -61.59161 16401 ft 276 kts 163°
2026-05-06 20:53 16.41674 -61.58607 16456 ft 276 kts 163°
2026-05-06 20:53 16.39828 -61.58051 16502 ft 276 kts 163°
2026-05-06 20:54 16.37982 -61.57496 16557 ft 276 kts 163°
2026-05-06 20:54 16.36138 -61.56941 16601 ft 276 kts 163°
2026-05-06 20:54 16.34291 -61.56381 16641 ft 277 kts 162°
2026-05-06 20:54 16.32439 -61.55822 16681 ft 277 kts 163°
2026-05-06 20:55 16.30615 -61.55273 16720 ft 277 kts 163°
2026-05-06 20:55 16.29368 -61.54897 16815 ft 275 kts 163°
2026-05-06 20:55 16.27033 -61.54196 16909 ft 274 kts 162°
2026-05-06 20:55 16.25214 -61.53597 16941 ft 275 kts 160°
2026-05-06 20:56 16.23398 -61.52956 16960 ft 276 kts 160°
2026-05-06 20:56 16.21574 -61.52307 16969 ft 278 kts 160°
2026-05-06 20:56 16.19738 -61.51650 16965 ft 280 kts 160°
2026-05-06 20:56 16.17891 -61.51012 16968 ft 280 kts 160°
2026-05-06 20:57 16.16060 -61.50383 16968 ft 281 kts 160°
2026-05-06 20:57 16.14202 -61.49745 16972 ft 281 kts 160°
2026-05-06 20:57 16.12343 -61.49107 16973 ft 282 kts 160°
2026-05-06 20:57 16.10480 -61.48468 16973 ft 282 kts 160°
2026-05-06 20:58 16.08614 -61.47828 16972 ft 282 kts 160°
2026-05-06 20:58 16.06750 -61.47189 16972 ft 282 kts 160°
2026-05-06 20:58 16.04882 -61.46549 16971 ft 283 kts 160°
2026-05-06 20:58 16.03014 -61.45908 16972 ft 283 kts 160°
2026-05-06 20:59 16.01146 -61.45268 16974 ft 283 kts 160°
2026-05-06 20:59 15.99302 -61.44637 16970 ft 283 kts 160°
2026-05-06 20:59 15.97429 -61.43995 16967 ft 283 kts 160°
2026-05-06 20:59 15.95559 -61.43355 16971 ft 283 kts 160°
2026-05-06 21:00 15.93690 -61.42714 16973 ft 283 kts 160°
2026-05-06 21:00 15.91817 -61.42073 16972 ft 283 kts 160°
2026-05-06 21:00 15.89946 -61.41433 16971 ft 283 kts 160°
2026-05-06 21:00 15.88076 -61.40792 16975 ft 283 kts 160°
2026-05-06 21:01 15.86205 -61.40152 16976 ft 284 kts 160°
2026-05-06 21:01 15.84359 -61.39521 16978 ft 282 kts 160°
2026-05-06 21:01 15.82496 -61.38883 16976 ft 282 kts 160°
2026-05-06 21:01 15.80631 -61.38246 16982 ft 282 kts 160°
2026-05-06 21:02 15.78769 -61.37609 16982 ft 282 kts 160°
2026-05-06 21:02 15.76907 -61.36973 16984 ft 282 kts 160°
2026-05-06 21:02 15.75046 -61.36336 16989 ft 282 kts 160°
2026-05-06 21:02 15.73186 -61.35701 16989 ft 281 kts 160°
2026-05-06 21:03 15.71325 -61.35067 16992 ft 281 kts 160°
2026-05-06 21:03 15.69491 -61.34438 16994 ft 282 kts 160°
2026-05-06 21:03 15.67631 -61.33804 16993 ft 281 kts 160°
2026-05-06 21:03 15.65772 -61.33169 16994 ft 281 kts 160°
2026-05-06 21:04 15.63911 -61.32533 16999 ft 282 kts 160°
2026-05-06 21:04 15.62050 -61.31898 17001 ft 282 kts 160°
2026-05-06 21:04 15.60188 -61.31261 17000 ft 282 kts 160°
2026-05-06 21:04 15.58327 -61.30625 17009 ft 282 kts 160°
2026-05-06 21:05 15.56463 -61.29989 17005 ft 282 kts 160°
2026-05-06 21:05 15.54594 -61.29375 17003 ft 282 kts 161°
2026-05-06 21:05 15.52726 -61.28821 17005 ft 283 kts 163°
2026-05-06 21:05 15.50821 -61.28291 16995 ft 283 kts 163°
2026-05-06 21:06 15.48920 -61.27759 17000 ft 283 kts 163°
2026-05-06 21:06 15.47014 -61.27218 17007 ft 284 kts 162°
2026-05-06 21:06 15.45109 -61.26674 16997 ft 284 kts 163°
2026-05-06 21:06 15.43203 -61.26131 16991 ft 284 kts 162°
2026-05-06 21:07 15.41295 -61.25587 16995 ft 284 kts 163°
2026-05-06 21:07 15.39390 -61.25043 16941 ft 284 kts 163°
2026-05-06 21:07 15.37492 -61.24500 16951 ft 283 kts 162°
2026-05-06 21:07 15.35622 -61.23970 16949 ft 282 kts 163°
2026-05-06 21:08 15.33726 -61.23430 16951 ft 282 kts 162°
2026-05-06 21:08 15.31835 -61.22891 16949 ft 282 kts 162°
2026-05-06 21:08 15.29944 -61.22350 16950 ft 282 kts 162°
2026-05-06 21:08 15.28055 -61.21813 16952 ft 281 kts 162°
2026-05-06 21:09 15.26165 -61.21275 16955 ft 282 kts 163°
2026-05-06 21:09 15.24278 -61.20736 16955 ft 282 kts 162°
2026-05-06 21:09 15.23025 -61.20380 16955 ft 282 kts 162°
2026-05-06 21:09 15.20522 -61.19672 16955 ft 282 kts 162°
2026-05-06 21:10 15.18636 -61.19132 16956 ft 281 kts 162°
2026-05-06 21:10 15.16748 -61.18594 16958 ft 281 kts 163°
2026-05-06 21:10 15.14860 -61.18059 16961 ft 281 kts 162°
2026-05-06 21:10 15.12970 -61.17522 16962 ft 281 kts 162°
2026-05-06 21:11 15.11084 -61.16984 16963 ft 281 kts 162°
2026-05-06 21:11 15.09835 -61.16628 16962 ft 281 kts 162°
2026-05-06 21:11 15.07949 -61.16090 16963 ft 281 kts 162°
2026-05-06 21:11 15.05451 -61.15381 16966 ft 281 kts 162°
2026-05-06 21:12 15.03565 -61.14849 16964 ft 281 kts 162°
2026-05-06 21:12 15.01681 -61.14313 16965 ft 281 kts 162°
2026-05-06 21:12 14.99795 -61.13776 16965 ft 281 kts 162°
2026-05-06 21:12 14.98547 -61.13422 16965 ft 281 kts 162°
2026-05-06 21:13 14.96026 -61.12707 16965 ft 281 kts 162°
2026-05-06 21:13 14.94778 -61.12352 16965 ft 281 kts 162°
2026-05-06 21:13 14.92896 -61.11818 16965 ft 281 kts 162°
2026-05-06 21:13 14.91012 -61.11283 16966 ft 281 kts 162°
2026-05-06 21:14 14.89132 -61.10751 16966 ft 281 kts 162°
2026-05-06 21:14 14.87249 -61.10217 16970 ft 280 kts 162°
2026-05-06 21:14 14.85366 -61.09683 16973 ft 280 kts 162°
2026-05-06 21:14 14.83485 -61.09149 16972 ft 281 kts 162°
2026-05-06 21:15 14.81622 -61.08620 16974 ft 281 kts 162°
2026-05-06 21:15 14.79734 -61.08085 16971 ft 282 kts 162°
2026-05-06 21:15 14.77843 -61.07550 16969 ft 282 kts 162°
2026-05-06 21:15 14.75954 -61.07014 16969 ft 281 kts 162°
2026-05-06 21:16 14.74067 -61.06482 16974 ft 281 kts 162°
2026-05-06 21:16 14.72183 -61.05948 16964 ft 281 kts 162°
2026-05-06 21:16 14.70299 -61.05415 16974 ft 280 kts 162°
2026-05-06 21:16 14.68415 -61.04881 16970 ft 280 kts 162°
2026-05-06 21:17 14.66538 -61.04349 16973 ft 280 kts 162°
2026-05-06 21:17 14.64686 -61.03825 16974 ft 280 kts 162°
2026-05-06 21:17 14.62806 -61.03291 16968 ft 280 kts 162°
2026-05-06 21:17 14.60931 -61.02759 16972 ft 279 kts 162°
2026-05-06 21:18 14.59058 -61.02227 16971 ft 278 kts 163°
2026-05-06 21:18 14.57145 -61.01975 16972 ft 278 kts 176°
2026-05-06 21:18 14.55207 -61.01944 16972 ft 279 kts 178°
2026-05-06 21:18 14.53265 -61.01933 16973 ft 279 kts 178°
2026-05-06 21:19 14.51321 -61.01883 16977 ft 280 kts 176°
2026-05-06 21:19 14.49375 -61.01779 16970 ft 280 kts 175°
2026-05-06 21:19 14.47428 -61.01665 16971 ft 280 kts 174°
2026-05-06 21:19 14.45506 -61.01544 16970 ft 280 kts 174°
2026-05-06 21:20 14.43559 -61.01417 16970 ft 280 kts 174°
2026-05-06 21:20 14.41611 -61.01305 16971 ft 280 kts 175°
2026-05-06 21:20 14.39664 -61.01200 16971 ft 280 kts 175°
2026-05-06 21:20 14.37718 -61.01096 16969 ft 280 kts 175°
2026-05-06 21:21 14.35774 -61.00991 16969 ft 280 kts 175°
2026-05-06 21:21 14.33829 -61.00886 16969 ft 280 kts 175°
2026-05-06 21:21 14.32012 -61.00790 16969 ft 280 kts 175°
2026-05-06 21:21 14.30094 -61.00687 16969 ft 280 kts 175°
2026-05-06 21:22 14.28152 -61.00582 16971 ft 280 kts 175°
2026-05-06 21:22 14.26208 -61.00477 16973 ft 280 kts 175°
2026-05-06 21:22 14.24265 -61.00372 16971 ft 280 kts 175°
2026-05-06 21:22 14.22323 -61.00269 16973 ft 280 kts 175°
2026-05-06 21:23 14.20382 -61.00162 16973 ft 280 kts 175°
2026-05-06 21:23 14.18438 -61.00051 16972 ft 279 kts 174°
2026-05-06 21:23 14.16498 -60.99948 16972 ft 279 kts 175°
2026-05-06 21:23 14.14560 -60.99856 16971 ft 279 kts 175°
2026-05-06 21:24 14.12647 -60.99755 16972 ft 279 kts 175°
2026-05-06 21:24 14.10708 -60.99652 16973 ft 279 kts 175°
2026-05-06 21:24 14.08771 -60.99547 16973 ft 279 kts 175°
2026-05-06 21:24 14.06833 -60.99447 16972 ft 279 kts 175°
2026-05-06 21:25 14.04894 -60.99343 16971 ft 279 kts 175°
2026-05-06 21:25 14.02955 -60.99240 16974 ft 279 kts 175°
2026-05-06 21:25 14.01017 -60.99138 16975 ft 279 kts 175°
2026-05-06 21:25 13.99079 -60.99032 16975 ft 279 kts 175°
2026-05-06 21:26 13.97138 -60.98928 16976 ft 279 kts 175°
2026-05-06 21:26 13.95194 -60.98826 16962 ft 279 kts 175°
2026-05-06 21:26 13.93282 -60.98728 16970 ft 279 kts 175°
2026-05-06 21:26 13.91343 -60.98626 16977 ft 279 kts 175°
2026-05-06 21:27 13.89410 -60.98520 16974 ft 278 kts 175°
2026-05-06 21:27 13.87475 -60.98419 16972 ft 278 kts 175°
2026-05-06 21:27 13.85539 -60.98317 16977 ft 279 kts 175°
2026-05-06 21:27 13.83603 -60.98213 16972 ft 278 kts 175°
2026-05-06 21:28 13.81669 -60.98113 16974 ft 279 kts 175°
2026-05-06 21:28 13.79732 -60.98010 16970 ft 279 kts 175°
2026-05-06 21:28 13.77796 -60.97908 16973 ft 279 kts 175°
2026-05-06 21:28 13.75887 -60.97806 16974 ft 278 kts 175°
2026-05-06 21:29 13.73953 -60.97706 16970 ft 277 kts 176°
2026-05-06 21:29 13.72070 -60.98044 16972 ft 276 kts 199°
2026-05-06 21:29 13.70295 -60.98809 16970 ft 277 kts 204°
2026-05-06 21:29 13.68547 -60.99641 16971 ft 278 kts 204°
2026-05-06 21:30 13.66786 -61.00461 16971 ft 278 kts 203°
2026-05-06 21:30 13.65005 -61.01240 16969 ft 278 kts 201°
2026-05-06 21:30 13.63238 -61.01987 16973 ft 279 kts 201°
2026-05-06 21:30 13.61443 -61.02743 16969 ft 279 kts 201°
2026-05-06 21:31 13.59646 -61.03498 16972 ft 279 kts 201°
2026-05-06 21:31 13.57848 -61.04256 16970 ft 280 kts 201°
2026-05-06 21:31 13.56047 -61.05013 16969 ft 280 kts 201°
2026-05-06 21:31 13.54246 -61.05771 16968 ft 280 kts 201°
2026-05-06 21:32 13.52441 -61.06531 16964 ft 280 kts 201°
2026-05-06 21:32 13.48833 -61.08050 16963 ft 280 kts 201°
2026-05-06 21:32 13.47052 -61.08799 16959 ft 280 kts 201°
2026-05-06 21:33 13.45248 -61.09555 16961 ft 280 kts 201°
2026-05-06 21:33 13.43443 -61.10314 16959 ft 280 kts 201°
2026-05-06 21:33 13.41641 -61.11073 16961 ft 280 kts 201°
2026-05-06 21:33 13.39837 -61.11829 16961 ft 280 kts 201°
2026-05-06 21:34 13.38032 -61.12583 16966 ft 280 kts 201°
2026-05-06 21:34 13.36224 -61.13326 16964 ft 280 kts 201°
2026-05-06 21:34 13.34412 -61.14060 16967 ft 280 kts 200°
2026-05-06 21:34 13.32603 -61.14804 16967 ft 280 kts 201°
2026-05-06 21:35 13.30822 -61.15547 16967 ft 280 kts 201°
2026-05-06 21:35 13.29020 -61.16303 16972 ft 280 kts 201°
2026-05-06 21:35 13.27217 -61.17059 16970 ft 280 kts 201°
2026-05-06 21:35 13.25414 -61.17815 16974 ft 280 kts 201°
2026-05-06 21:36 13.23611 -61.18569 16971 ft 280 kts 201°
2026-05-06 21:36 13.21811 -61.19323 16978 ft 280 kts 201°
2026-05-06 21:36 13.20008 -61.20078 16969 ft 280 kts 201°
2026-05-06 21:36 13.18208 -61.20834 16974 ft 279 kts 201°
2026-05-06 21:37 13.16407 -61.21586 16969 ft 279 kts 201°
2026-05-06 21:37 13.14634 -61.22327 16969 ft 279 kts 201°
2026-05-06 21:37 13.12796 -61.22886 16973 ft 275 kts 187°
2026-05-06 21:37 13.10902 -61.23102 16972 ft 274 kts 182°
2026-05-06 21:38 13.09003 -61.23244 16973 ft 274 kts 182°
2026-05-06 21:38 13.07102 -61.23413 16970 ft 275 kts 184°
2026-05-06 21:38 13.05200 -61.23638 16967 ft 275 kts 185°
2026-05-06 21:38 13.03300 -61.23885 16964 ft 275 kts 185°
2026-05-06 21:39 13.01399 -61.24124 16960 ft 275 kts 185°
2026-05-06 21:39 12.99496 -61.24356 16960 ft 275 kts 185°
2026-05-06 21:39 12.97593 -61.24587 16960 ft 276 kts 185°
2026-05-06 21:39 12.95713 -61.24818 16958 ft 276 kts 185°
2026-05-06 21:40 12.93807 -61.25056 16955 ft 276 kts 185°
2026-05-06 21:40 12.91900 -61.25287 16946 ft 276 kts 185°
2026-05-06 21:40 12.89994 -61.25516 16946 ft 276 kts 185°
2026-05-06 21:40 12.88088 -61.25747 16944 ft 275 kts 185°
2026-05-06 21:41 12.86186 -61.25979 16944 ft 275 kts 185°
2026-05-06 21:41 12.84288 -61.26214 16941 ft 275 kts 185°
2026-05-06 21:41 12.82390 -61.26451 16938 ft 275 kts 185°
2026-05-06 21:41 12.80489 -61.26685 16936 ft 275 kts 185°
2026-05-06 21:42 12.78588 -61.26919 16939 ft 275 kts 185°
2026-05-06 21:42 12.76687 -61.27149 16937 ft 275 kts 185°
2026-05-06 21:42 12.74809 -61.27376 16937 ft 275 kts 185°
2026-05-06 21:42 12.72908 -61.27608 16937 ft 275 kts 185°
2026-05-06 21:43 12.71006 -61.27841 16936 ft 275 kts 185°
2026-05-06 21:43 12.69107 -61.28076 16935 ft 275 kts 185°
2026-05-06 21:43 12.67208 -61.28308 16938 ft 275 kts 185°
2026-05-06 21:43 12.65311 -61.28537 16940 ft 275 kts 185°
2026-05-06 21:44 12.63411 -61.28764 16938 ft 275 kts 185°
2026-05-06 21:44 12.61514 -61.28995 16939 ft 275 kts 185°
2026-05-06 21:44 12.59641 -61.29225 16938 ft 275 kts 185°
2026-05-06 21:44 12.57744 -61.29456 16938 ft 275 kts 185°
2026-05-06 21:45 12.55848 -61.29687 16936 ft 274 kts 185°
2026-05-06 21:45 12.53953 -61.29921 16938 ft 274 kts 185°
2026-05-06 21:45 12.52060 -61.30155 16939 ft 274 kts 185°
2026-05-06 21:45 12.50167 -61.30384 16937 ft 274 kts 185°
2026-05-06 21:46 12.48276 -61.30617 16937 ft 274 kts 185°
2026-05-06 21:46 12.46384 -61.30847 16936 ft 274 kts 185°
2026-05-06 21:46 12.44516 -61.31074 16937 ft 274 kts 185°
2026-05-06 21:46 12.42626 -61.31302 16938 ft 274 kts 185°
2026-05-06 21:47 12.40735 -61.31535 16939 ft 273 kts 185°
2026-05-06 21:47 12.38846 -61.31763 16937 ft 273 kts 185°
2026-05-06 21:47 12.36959 -61.31992 16940 ft 273 kts 185°
2026-05-06 21:47 12.35070 -61.32220 16939 ft 274 kts 185°
2026-05-06 21:48 12.33177 -61.32449 16938 ft 274 kts 185°
2026-05-06 21:48 12.31288 -61.32679 16937 ft 274 kts 185°
2026-05-06 21:48 12.29399 -61.32915 16936 ft 273 kts 185°
2026-05-06 21:48 12.27533 -61.33139 16936 ft 273 kts 185°
2026-05-06 21:49 12.25646 -61.33371 16936 ft 273 kts 185°
2026-05-06 21:49 12.23761 -61.33600 16935 ft 273 kts 185°
2026-05-06 21:49 12.21878 -61.33826 16933 ft 273 kts 185°
2026-05-06 21:49 12.19994 -61.34056 16937 ft 273 kts 185°
2026-05-06 21:50 12.18109 -61.34290 16935 ft 272 kts 185°
2026-05-06 21:50 12.16229 -61.34518 16936 ft 272 kts 185°
2026-05-06 21:50 12.14344 -61.34743 16934 ft 272 kts 185°
2026-05-06 21:50 12.12487 -61.34966 16936 ft 273 kts 185°
2026-05-06 21:51 12.10605 -61.35198 16932 ft 273 kts 185°
2026-05-06 21:51 12.08720 -61.35429 16933 ft 273 kts 185°
2026-05-06 21:51 12.06837 -61.35655 16932 ft 273 kts 185°
2026-05-06 21:51 12.04952 -61.35885 16935 ft 273 kts 185°
2026-05-06 21:52 12.03067 -61.36113 16935 ft 273 kts 185°
2026-05-06 21:52 12.01185 -61.36344 16935 ft 273 kts 185°
2026-05-06 21:52 11.99301 -61.36570 16933 ft 273 kts 185°
2026-05-06 21:52 11.97442 -61.36795 16929 ft 272 kts 185°
2026-05-06 21:53 11.95561 -61.37025 16931 ft 272 kts 185°
2026-05-06 21:53 11.93680 -61.37255 16931 ft 272 kts 185°
2026-05-06 21:53 11.91799 -61.37482 16933 ft 272 kts 185°
2026-05-06 21:53 11.89919 -61.37716 16933 ft 272 kts 185°
2026-05-06 21:54 11.88035 -61.37939 16931 ft 272 kts 185°
2026-05-06 21:54 11.86150 -61.38164 16931 ft 273 kts 185°
2026-05-06 21:54 11.84268 -61.38396 16933 ft 273 kts 186°
2026-05-06 21:54 11.82383 -61.38629 16932 ft 273 kts 185°
2026-05-06 21:55 11.80499 -61.38854 16932 ft 273 kts 185°
2026-05-06 21:55 11.78641 -61.39081 16933 ft 273 kts 185°
2026-05-06 21:55 11.76756 -61.39306 16933 ft 273 kts 185°
2026-05-06 21:55 11.74873 -61.39534 16936 ft 273 kts 185°
2026-05-06 21:56 11.72988 -61.39764 16937 ft 273 kts 185°
2026-05-06 21:56 11.71105 -61.39988 16934 ft 273 kts 185°
2026-05-06 21:56 11.69221 -61.40219 16929 ft 273 kts 185°
2026-05-06 21:56 11.67337 -61.40450 16932 ft 273 kts 185°
2026-05-06 21:57 11.65453 -61.40681 16931 ft 273 kts 185°
2026-05-06 21:57 11.63568 -61.40906 16931 ft 273 kts 185°
2026-05-06 21:57 11.61711 -61.41129 16935 ft 273 kts 185°
2026-05-06 21:57 11.59828 -61.41357 16929 ft 272 kts 185°
2026-05-06 21:58 11.57947 -61.41582 16928 ft 272 kts 186°
2026-05-06 21:58 11.56065 -61.41810 16931 ft 272 kts 185°
2026-05-06 21:58 11.54184 -61.42038 16929 ft 272 kts 185°
2026-05-06 21:58 11.52305 -61.42268 16925 ft 272 kts 185°
2026-05-06 21:59 11.50421 -61.42501 16927 ft 272 kts 185°
2026-05-06 21:59 11.48541 -61.42725 16927 ft 272 kts 185°
2026-05-06 21:59 11.46683 -61.42946 16927 ft 272 kts 185°
2026-05-06 21:59 11.44801 -61.43176 16925 ft 273 kts 185°
2026-05-06 22:00 11.42919 -61.43406 16928 ft 273 kts 185°
2026-05-06 22:00 11.41033 -61.43631 16923 ft 273 kts 185°
2026-05-06 22:00 11.39148 -61.43857 16924 ft 273 kts 185°
2026-05-06 22:00 11.37264 -61.44089 16927 ft 273 kts 185°
2026-05-06 22:01 11.35379 -61.44317 16919 ft 273 kts 185°
2026-05-06 22:01 11.33493 -61.44541 16921 ft 273 kts 185°
2026-05-06 22:01 11.31610 -61.44766 16919 ft 273 kts 185°
2026-05-06 22:01 11.29753 -61.44991 16919 ft 272 kts 185°
2026-05-06 22:02 11.27873 -61.45223 16917 ft 272 kts 185°
2026-05-06 22:02 11.25990 -61.45449 16921 ft 272 kts 185°
2026-05-06 22:02 11.24111 -61.45678 16919 ft 272 kts 185°
2026-05-06 22:02 11.22225 -61.45910 16765 ft 277 kts 185°
2026-05-06 22:03 11.20286 -61.46151 16378 ft 283 kts 185°
2026-05-06 22:03 11.18312 -61.46404 15991 ft 288 kts 184°
2026-05-06 22:03 11.16311 -61.46659 15594 ft 292 kts 185°
2026-05-06 22:03 11.14314 -61.46910 15212 ft 295 kts 184°
2026-05-06 22:04 11.12271 -61.47160 14820 ft 297 kts 184°
2026-05-06 22:04 11.10221 -61.47409 14436 ft 296 kts 184°
2026-05-06 22:04 11.08174 -61.47657 14053 ft 296 kts 184°
2026-05-06 22:04 11.06126 -61.47902 13655 ft 296 kts 183°
2026-05-06 22:05 11.04091 -61.48145 13222 ft 292 kts 183°
2026-05-06 22:05 11.02087 -61.48388 12808 ft 287 kts 184°
2026-05-06 22:05 11.00121 -61.48627 12410 ft 283 kts 183°
2026-05-06 22:05 10.98207 -61.48858 12023 ft 278 kts 183°
2026-05-06 22:06 10.96313 -61.49085 11644 ft 270 kts 183°
2026-05-06 22:06 10.94472 -61.49308 11282 ft 263 kts 183°
2026-05-06 22:06 10.92677 -61.49524 10925 ft 257 kts 183°
2026-05-06 22:06 10.90921 -61.49737 10583 ft 251 kts 183°
2026-05-06 22:07 10.89202 -61.49944 10253 ft 246 kts 183°
2026-05-06 22:07 10.87515 -61.50148 9922 ft 242 kts 183°
2026-05-06 22:07 10.85854 -61.50347 9569 ft 239 kts 183°
2026-05-06 22:07 10.84216 -61.50545 9217 ft 235 kts 183°
2026-05-06 22:08 10.82620 -61.50739 8875 ft 233 kts 183°
2026-05-06 22:08 10.81024 -61.50930 8526 ft 230 kts 182°
2026-05-06 22:08 10.79443 -61.51120 8208 ft 228 kts 182°
2026-05-06 22:08 10.77878 -61.51309 7883 ft 226 kts 183°
2026-05-06 22:09 10.76324 -61.51496 7556 ft 224 kts 183°
2026-05-06 22:09 10.74783 -61.51686 7234 ft 222 kts 182°
2026-05-06 22:09 10.73779 -61.51807 7029 ft 221 kts 182°
2026-05-06 22:09 10.72257 -61.51974 6721 ft 220 kts 182°
2026-05-06 22:10 10.70732 -61.52143 6372 ft 221 kts 182°
2026-05-06 22:10 10.69244 -61.52320 6174 ft 214 kts 185°
2026-05-06 22:10 10.67827 -61.52811 5880 ft 217 kts 200°
2026-05-06 22:10 10.66457 -61.53461 5567 ft 217 kts 202°
2026-05-06 22:11 10.65090 -61.54123 5266 ft 218 kts 201°
2026-05-06 22:11 10.63712 -61.54765 4968 ft 218 kts 200°
2026-05-06 22:11 10.62321 -61.55364 4662 ft 217 kts 199°
2026-05-06 22:11 10.60894 -61.55668 4303 ft 206 kts 168°
2026-05-06 22:12 10.59714 -61.55009 4145 ft 190 kts 126°
2026-05-06 22:12 10.59345 -61.53821 4090 ft 174 kts 92°
2026-05-06 22:12 10.59342 -61.52622 4063 ft 165 kts 90°
2026-05-06 22:12 10.59380 -61.51505 4058 ft 153 kts 88°
2026-05-06 22:13 10.59422 -61.50461 4044 ft 143 kts 89°
2026-05-06 22:13 10.59462 -61.49479 4040 ft 135 kts 88°
2026-05-06 22:13 10.59497 -61.48545 3991 ft 131 kts 87°
2026-05-06 22:13 10.59555 -61.47530 3579 ft 149 kts 86°
2026-05-06 22:14 10.59599 -61.46581 3525 ft 125 kts 89°
2026-05-06 22:14 10.59601 -61.45639 3033 ft 137 kts 93°
2026-05-06 22:14 10.59547 -61.44673 2583 ft 139 kts 92°
2026-05-06 22:14 10.59506 -61.43707 2132 ft 141 kts 88°
2026-05-06 22:15 10.59535 -61.42754 1938 ft 130 kts 90°
2026-05-06 22:15 10.59524 -61.41848 1604 ft 126 kts 90°
2026-05-06 22:15 10.59507 -61.40975 1275 ft 127 kts 91°
2026-05-06 22:15 10.59530 -61.40047 1018 ft 132 kts 88°
2026-05-06 22:16 10.59569 -61.39115 793 ft 131 kts 89°
2026-05-06 22:16 10.59534 -61.38221 611 ft 121 kts 92°
2026-05-06 22:16 10.59532 -61.37358 514 ft 126 kts 91°
2026-05-06 22:16 10.59540 -61.36460 338 ft 127 kts 93°
2026-05-06 22:17 10.59537 -61.35582 141 ft 124 kts 89°
2026-05-06 22:17 10.59535 -61.34739 22 ft 113 kts 90°
2026-05-06 22:17 10.59536 -61.34191 14 ft 44 kts 90°
2026-05-06 22:17 10.59538 -61.33923 12 ft 33 kts 89°
2026-05-06 22:18 10.59539 -61.33727 13 ft 23 kts 90°
2026-05-06 22:18 10.59554 -61.33589 12 ft 17 kts 71°
2026-05-06 22:18 10.59586 -61.33500 13 ft 11 kts 63°
2026-05-06 22:18 10.59641 -61.33459 13 ft 11 kts 26°
2026-05-06 22:19 10.59707 -61.33449 16 ft 10 kts 312°
2026-05-06 22:19 10.59709 -61.33543 14 ft 19 kts 270°
2026-05-06 22:19 10.59709 -61.33675 13 ft 19 kts 270°
2026-05-06 22:19 10.59745 -61.33747 13 ft 10 kts
2026-05-06 22:20 10.59825 -61.33742 13 ft 13 kts
2026-05-06 22:20 10.59916 -61.33739 13 ft 14 kts
2026-05-06 22:20 10.60006 -61.33740 13 ft 15 kts 358°
2026-05-06 22:21 10.60077 -61.33743 13 ft 10 kts 350°
2026-05-06 22:21 10.60118 -61.33807 13 ft 13 kts 288°
2026-05-06 22:21 10.60143 -61.33912 13 ft 4 kts 247°
2026-05-06 22:21 10.60139 -61.33913 13 ft 0 kts 191°
2026-05-06 22:22 10.60135 -61.33898 13 ft 4 kts 101°
2026-05-06 22:22 10.60132 -61.33888 13 ft 1 kts 118°
2026-05-06 22:22 10.60125 -61.33880 14 ft 2 kts 129°
2026-05-06 22:22 10.60124 -61.33878 13 ft 0 kts 130°